Terminal Aerodrome Forecast
Issued by NWS

Home | Current Version | Previous Version | Text Only | Print | Product List | Glossary On
Versions: 1 2 3 4 5 6 7 8 9 10 11 12
005
FTUS42 TJSJ 250535
TAFISX
TAF
TISX 250535Z 2506/2606 08008KT P6SM SCT025
     FM251430 10013KT P6SM SCT025
     FM252200 08009KT P6SM FEW020=

USA.gov is the U.S. government's official web portal to all federal, state and local government web resources and services.